Location: Marcé
(47.5801°N, 0.3280°W)
Time: 14:39:33
(UTC+01:00)

Transit 4A - Visible Passes

Search period start: 09 December 2021 00:00
Search period end: 19 December 2021 00:00
Orbit: 866 x 978 km, 66.8° (Epoch: 08 December)

Date Brightness Start Highest point End Pass type
(mag) Time Alt. Az. Time Alt. Az. Time Alt. Az.
09 Dec 8.5 18:22:16 10° S 18:27:36 36° ESE 18:31:39 17° NE visible
09 Dec 8.6 20:08:06 10° WSW 20:13:49 48° NW 20:15:11 41° N visible
09 Dec 10.6 21:57:53 10° WNW 21:58:43 12° NW 21:58:43 12° NW visible
10 Dec 8.0 18:31:02 10° S 18:36:43 52° ESE 18:41:09 18° NE visible
10 Dec 9.0 20:17:51 10° WSW 20:23:19 37° NW 20:24:41 33° NNW visible
11 Dec 7.8 18:40:03 10° SSW 18:45:55 75° ESE 18:50:35 18° NE visible
11 Dec 9.3 20:27:47 10° W 20:32:54 29° NW 20:34:07 27° NNW visible
12 Dec 7.9 18:49:18 10° SW 18:55:12 80° NW 18:59:58 17° NNE visible
12 Dec 9.6 20:37:52 10° W 20:42:34 23° NNW 20:43:30 22° NNW visible
13 Dec 8.3 18:58:44 10° SW 19:04:35 59° NW 19:09:18 17° NNE visible
13 Dec 9.9 20:48:05 10° WNW 20:52:18 19° NNW 20:52:49 19° NNW visible
14 Dec 8.8 19:08:22 10° WSW 19:14:02 44° NW 19:18:34 16° NNE visible
14 Dec 10.0 20:58:23 10° WNW 21:02:06 16° NNW 21:02:06 16° NNW visible
15 Dec 9.2 19:18:11 10° WSW 19:23:34 34° NW 19:27:49 16° NNE visible
15 Dec 10.2 21:08:45 10° NW 21:11:20 14° NNW 21:11:20 14° NNW visible
16 Dec 7.9 17:40:08 10° SSW 17:46:03 84° ESE 17:52:12 10° NE visible
16 Dec 9.5 19:28:10 10° W 19:33:10 27° NW 19:37:02 15° NNE visible
16 Dec 10.4 21:19:04 10° NW 21:20:32 12° NNW 21:20:32 12° NNW visible
17 Dec 8.1 17:49:27 10° SW 17:55:22 72° NW 18:01:31 10° NNE visible
17 Dec 9.7 19:38:18 10° W 19:42:52 22° NNW 19:46:13 14° N visible
17 Dec 10.5 21:29:13 10° NNW 21:29:44 11° NNW 21:29:44 11° NNW visible
18 Dec 8.5 17:58:58 10° SW 18:04:46 53° NW 18:10:47 10° NNE visible
18 Dec 9.9 19:48:33 10° WNW 19:52:37 18° NNW 19:55:23 14° N visible
